This is the latest recevied weather packets stored in our database for station/object ED5YAL-15. If no packets are shown the sender has not sent any weather packets the latest 10 day(s).
| Time | Temp. | Humidity | Pressure | Rain* | Wind** | Luminosity | Snow |
|---|---|---|---|---|---|---|---|
| 1777701697 | 12.78° C | 60% | 1022.8 hPa | - | - | - | - |
| 1777700796 | 13.33° C | 60% | 1022.9 hPa | - | - | - | - |
| 1777699895 | 12.78° C | 59% | 1022.7 hPa | - | - | - | - |
| 1777698995 | 12.78° C | 59% | 1022.7 hPa | - | - | - | - |
| 1777698583 | 12.78° C | 59% | 1022.7 hPa | - | - | - | - |
| 1777698094 | 12.78° C | 59% | 1022.8 hPa | - | - | - | - |
| 1777697193 | 12.78° C | 59% | 1022.7 hPa | - | - | - | - |
| 1777696292 | 12.78° C | 59% | 1022.8 hPa | - | - | - | - |
| 1777695391 | 13.33° C | 59% | 1022.8 hPa | - | - | - | - |
| 1777694491 | 13.33° C | 59% | 1022.9 hPa | - | - | - | - |
| 1777693590 | 13.33° C | 59% | 1023.1 hPa | - | - | - | - |
| 1777692689 | 13.89° C | 59% | 1023.2 hPa | - | - | - | - |
| 1777691799 | 13.33° C | 59% | 1023.2 hPa | - | - | - | - |
| 1777690887 | 13.33° C | 59% | 1023.2 hPa | - | - | - | - |
| 1777689991 | 13.33° C | 59% | 1023.1 hPa | - | - | - | - |
| 1777689086 | 13.33° C | 59% | 1023.3 hPa | - | - | - | - |
| 1777688516 | 15.56° C | 59% | 1023.2 hPa | - | - | - | - |
| 1777688185 | 15.56° C | 59% | 1023.2 hPa | - | - | - | - |
| 1777687303 | 13.89° C | 59% | 1023.2 hPa | - | - | - | - |
| 1777686402 | 13.89° C | 58% | 1023.2 hPa | - | - | - | - |
| 1777685502 | 13.89° C | 58% | 1023.4 hPa | - | - | - | - |
| 1777684601 | 13.89° C | 58% | 1023.4 hPa | - | - | - | - |
| 1777683700 | 13.33° C | 58% | 1023.5 hPa | - | - | - | - |
| 1777682799 | 13.89° C | 58% | 1023.8 hPa | - | - | - | - |
| 1777681898 | 13.89° C | 58% | 1023.9 hPa | - | - | - | - |
* Rain since midnight (hover to see other rain measurements)
** Current wind speed in m/s (hover to see current wind gust speed)